Wind_Speed
2 2 3 3 2 5 6 5 4 3 4 7 7 6 2 2 2 4 3 1 2 3 3 2 2 1 2 3 8 11 12 9 6 3 1 6 9 13 11 16 22 21 21 21 20 23 24 24 24 24 24 24 24 24 24 24 22 20 19 18 18 19 18 17 17 18 19 19 19 20 20 21 22 21 19 18 18 18 18 18 18 18 20 21 21 22 21 21 21 20 19 18 18 17 18 18 19
1 3 3 2 4 6 3 3 5 3 5 7 7 6 2 4 2 5 1 3 3 5 3 3 4 3 3 3 6 6 10 12 8 6 6 10 12 11 14 18 21 21 21 20 20 21 21 24 25 24 24 24 23 23 22 21 20 20 19 19 18 18 17 16 17 18 18 18 19 20 20 19 21 21 19 19 18 18 17 17 18 18 18 19 20 20 20 20 20 19 18 17 17 16 16 17 17
3 3 3 4 5 5 1 3 6 5 6 7 6 3 2 3 3 2 4 4 5 4 3 4 4 3 2 3 6 6 7 8 9 9 8 12 11 12 17 19 20 21 20 20 20 20 20 22 25 24 25 24 24 23 22 21 21 20 19 18 18 17 17 16 17 18 18 19 19 19 19 18 19 20 20 19 18 18 18 17 17 17 17 17 17 17 17 18 18 17 17 16 16 15 15 16 16
4 3 3 5 4 4 4 4 5 5 6 6 3 4 3 3 3 6 5 4 3 2 2 2 4 4 3 5 5 6 9 7 8 8 8 9 10 16 19 19 20 20 20 20 19 19 19 22 25 24 25 24 24 24 23 22 21 20 19 18 17 17 16 16 18 18 18 18 18 19 19 18 18 20 20 19 18 18 18 18 17 16 17 16 15 15 14 16 16 15 16 16 15 14 14 14 15
4 3 3 6 4 2 3 4 4 6 5 4 2 4 4 4 6 5 5 3 3 3 2 1 2 4 6 9 4 3 7 5 7 6 8 9 12 18 19 20 20 19 19 19 19 18 18 23 25 24 25 24 24 24 23 22 20 19 18 18 17 17 17 18 18 17 18 17 18 18 18 17 17 20 19 18 18 17 17 17 17 17 17 16 15 14 13 15 16 15 15 15 15 14 14 14 14
4 5 4 6 3 1 4 5 4 7 5 3 3 5 6 4 6 5 4 2 3 2 1 3 2 6 7 8 7 6 4 3 6 6 9 11 15 18 19 20 19 19 19 18 18 17 18 23 24 24 24 23 23 22 22 21 19 18 17 17 17 17 18 18 17 17 18 18 18 18 18 17 17 19 18 18 19 18 17 16 16 16 16 15 14 12 13 15 16 16 16 16 15 14 14 13 12
5 5 5 5 2 2 6 6 5 6 2 1 4 4 5 3 5 4 3 3 4 3 3 2 2 7 7 5 7 8 5 2 4 8 10 14 17 18 19 18 18 19 18 18 17 17 20 24 24 23 23 22 21 20 20 20 19 18 18 18 17 19 19 17 17 17 17 17 17 17 17 17 17 19 18 19 19 18 18 16 16 15 15 14 11 12 14 16 16 17 17 17 16 14 13 12 10
6 4 2 4 3 4 6 5 5 4 2 1 4 2 2 4 4 4 2 2 3 3 4 3 5 5 6 3 4 7 6 4 6 11 14 16 18 18 18 17 18 18 18 17 17 18 21 23 23 22 22 21 20 20 20 19 19 18 18 18 17 19 19 17 18 18 18 17 16 16 15 15 17 18 18 19 19 18 18 17 17 16 14 12 11 13 15 16 16 17 17 16 15 14 13 11 9
7 4 2 4 4 4 5 5 4 4 2 1 2 3 4 5 4 5 3 2 2 4 5 6 5 3 8 6 6 7 5 6 10 14 15 17 17 17 17 17 18 18 17 17 18 19 19 21 22 22 22 21 19 20 19 19 19 18 19 18 18 19 19 18 19 19 19 18 17 16 16 16 17 16 16 17 18 18 17 17 16 15 13 12 12 15 15 15 16 16 17 16 14 13 12 11 9
6 4 3 4 4 4 6 5 3 2 2 1 2 3 4 4 4 5 5 3 4 6 7 4 4 5 9 8 8 6 4 7 12 14 15 16 16 16 16 16 16 17 17 17 19 19 18 20 22 22 21 20 20 19 18 19 19 19 19 19 19 20 19 19 20 21 20 19 18 17 16 16 16 15 14 14 16 16 16 16 15 14 13 13 14 15 15 14 15 16 16 15 14 13 11 10 9
4 3 3 4 5 5 4 3 3 2 2 2 2 0 3 4 4 5 4 3 5 7 7 5 6 9 9 7 6 5 5 8 11 14 15 15 14 14 15 15 15 16 17 17 19 19 19 19 20 21 20 19 20 19 18 18 19 19 20 20 20 20 19 19 20 21 20 19 18 16 15 15 15 14 13 12 13 14 15 15 14 14 13 14 15 14 14 13 14 15 16 15 14 12 11 10 8
4 4 3 5 5 4 2 2 2 1 2 2 2 4 4 3 3 5 6 6 7 9 7 4 7 9 8 7 5 5 6 8 10 13 14 14 13 13 14 14 15 15 16 18 18 18 20 19 18 19 19 19 20 19 19 19 19 19 19 20 20 21 20 19 19 21 21 20 18 16 15 15 15 14 12 12 12 13 15 14 14 13 14 15 15 13 13 12 13 15 15 15 13 12 10 9 9
4 3 4 4 3 2 2 2 1 2 3 3 3 5 4 2 2 3 6 8 8 10 7 4 8 6 6 7 5 6 7 8 10 13 14 13 13 13 13 14 15 16 16 17 17 18 20 19 18 17 18 18 19 19 20 20 19 19 19 20 21 21 20 19 19 21 21 20 18 17 17 16 15 13 12 11 11 12 13 14 14 13 13 15 15 12 11 12 13 15 15 15 13 11 10 9 9
4 2 4 3 1 3 3 2 2 4 3 5 5 5 2 1 0 2 7 9 7 8 9 6 7 5 6 6 5 6 8 11 12 13 13 13 13 13 12 13 15 16 16 16 16 18 19 18 17 17 17 18 17 17 19 19 19 18 18 19 20 21 20 19 19 20 21 20 19 18 18 16 14 12 11 11 11 10 11 12 13 13 14 15 14 13 11 11 14 15 15 14 13 11 10 10 9
3 2 4 4 2 4 4 2 2 4 3 6 5 5 1 2 0 2 2 5 8 8 7 6 2 2 7 7 5 9 12 14 13 13 14 13 14 13 12 12 15 16 15 15 16 18 18 17 17 17 18 19 18 16 16 16 17 18 17 18 19 20 20 19 18 19 19 19 19 19 17 15 13 11 10 10 10 10 10 10 12 13 14 16 15 13 12 12 14 15 15 14 13 12 11 10 10
3 2 4 4 4 4 4 3 3 3 4 6 6 4 3 5 1 0 4 3 9 6 3 5 1 1 5 3 6 14 16 16 15 14 14 13 13 13 12 11 14 16 15 16 16 17 18 17 17 16 17 18 17 16 15 14 15 16 16 17 18 19 18 17 17 16 17 19 19 18 16 14 12 11 10 9 9 10 10 10 12 13 16 17 16 14 13 13 14 15 15 14 14 13 12 11 10
3 4 5 4 4 4 4 6 3 2 5 7 7 5 2 7 3 3 4 5 10 8 5 6 4 3 4 5 13 20 19 18 16 15 15 14 13 12 12 11 12 14 14 16 16 17 17 17 17 16 16 16 16 16 15 14 15 15 15 15 15 17 17 16 15 15 17 19 18 16 15 13 12 12 11 10 9 10 10 10 12 14 17 18 16 15 14 14 14 15 15 14 14 14 13 12 10
5 5 5 4 4 4 3 3 3 3 5 7 7 6 2 6 7 5 6 8 10 9 8 7 6 7 7 11 18 20 18 19 17 16 14 13 12 11 11 11 12 13 14 15 15 16 16 16 15 15 17 16 17 17 15 15 15 15 15 13 13 13 14 14 13 15 18 18 17 16 14 13 12 12 12 11 10 10 9 10 12 15 18 18 16 15 14 14 15 15 15 14 14 14 14 12 10
6 4 4 5 3 3 4 3 4 4 5 7 6 6 3 4 6 4 6 9 10 9 8 6 7 8 8 14 17 17 18 18 16 15 14 12 11 11 11 11 13 13 14 14 14 15 15 15 14 14 15 15 16 16 15 15 16 16 16 15 15 14 14 14 14 16 17 17 16 15 12 11 11 10 11 12 12 11 9 10 13 15 17 17 16 16 15 15 16 15 14 14 14 14 12 9 9
6 4 5 4 1 3 3 1 3 5 6 7 7 5 2 4 2 3 6 10 8 7 6 6 7 8 11 14 15 16 16 15 15 14 12 12 11 11 11 11 13 13 14 14 14 15 14 14 14 13 14 15 14 14 14 15 17 17 16 16 16 16 16 16 16 16 16 15 14 11 9 9 9 9 11 12 12 12 10 11 14 15 16 16 15 15 15 16 16 15 14 13 12 10 9 8 8
4 5 6 1 2 2 4 1 3 5 6 7 7 4 2 2 2 3 7 9 7 6 6 5 8 12 13 13 14 15 15 14 14 12 11 11 11 11 10 11 12 12 13 13 14 15 14 14 15 14 15 15 15 14 15 16 16 16 15 15 15 16 16 15 15 14 13 13 11 9 9 9 9 9 11 11 11 12 12 13 14 14 14 14 14 13 14 16 15 15 14 11 8 8 8 8 8
4 7 7 0 1 3 5 3 3 5 6 7 6 3 2 0 2 3 3 3 5 5 4 4 8 12 13 13 14 13 13 13 13 12 11 10 10 10 10 10 10 11 12 13 13 13 14 14 14 15 15 15 15 14 14 15 16 14 14 15 14 14 14 14 13 12 12 12 11 9 9 10 9 9 10 10 9 11 12 13 14 14 13 13 13 12 13 15 14 14 13 10 8 8 8 8 8
6 7 7 5 5 4 2 1 2 4 7 7 5 4 3 2 5 2 2 5 6 3 1 5 8 11 13 14 13 13 12 12 11 12 12 11 11 10 10 11 10 11 11 11 11 11 12 12 13 14 14 14 14 13 12 13 14 13 12 13 13 13 13 12 12 11 11 12 11 10 10 10 9 9 10 10 9 10 11 12 13 14 14 13 12 12 13 13 13 13 12 9 8 9 9 9 8
9 6 7 7 6 5 3 3 2 4 7 7 5 4 4 2 6 3 1 6 4 1 2 7 10 11 13 13 12 11 11 11 11 12 11 11 11 10 10 10 10 10 9 8 8 8 10 11 12 13 12 13 12 12 11 12 12 12 12 12 12 13 13 12 12 11 11 12 11 10 10 10 9 9 9 9 9 9 9 10 12 12 13 13 12 12 13 13 12 11 11 10 9 9 9 9 8
11 7 5 6 5 5 4 4 4 5 6 4 3 5 3 2 3 4 4 4 2 3 6 9 11 11 12 12 11 10 9 10 10 11 10 9 9 9 9 9 9 8 8 8 7 7 9 9 11 11 11 12 11 10 10 10 11 11 12 12 12 13 12 11 11 10 10 11 11 11 11 10 10 9 9 9 8 8 8 9 10 11 12 12 13 13 13 12 11 11 11 10 10 9 9 8 8
10 11 6 6 6 5 4 5 5 4 4 2 3 5 4 3 3 4 5 3 3 6 8 10 10 11 10 10 10 9 9 9 10 10 9 8 8 9 9 8 8 8 7 7 7 6 7 8 9 10 10 10 9 9 8 7 9 9 9 10 10 11 11 10 9 8 8 9 10 10 11 11 10 9 9 8 8 8 8 9 10 10 11 12 13 14 13 12 11 11 11 11 11 10 9 8 8
7 12 8 7 6 4 5 5 5 5 5 4 6 5 6 4 4 3 6 3 5 8 9 9 9 10 10 10 9 8 8 9 9 9 9 8 8 10 9 8 7 6 6 6 6 4 4 6 7 8 8 7 6 6 5 5 5 5 6 7 7 8 8 8 8 7 8 9 9 11 11 11 12 10 9 8 8 8 8 9 10 10 11 11 13 14 14 13 12 11 11 11 11 10 9 9 8
5 8 8 8 7 6 7 7 5 5 3 5 7 5 7 5 1 5 6 4 6 9 9 9 9 8 9 9 9 7 7 8 8 8 9 7 7 7 8 7 5 5 4 5 5 3 2 3 4 5 5 5 4 3 3 3 3 4 5 5 5 6 6 6 7 6 7 8 9 10 11 12 13 12 10 9 9 8 8 9 10 11 12 12 12 14 14 13 12 12 11 11 10 10 9 9 8
5 6 7 9 8 8 9 8 4 4 3 4 6 7 8 5 5 6 3 3 5 8 8 9 8 7 8 8 7 6 6 7 6 6 6 7 6 5 6 6 5 3 3 3 3 3 0 1 2 2 3 4 3 2 3 2 3 3 4 4 4 4 4 6 6 7 7 8 8 9 11 12 13 11 10 10 9 8 8 9 10 11 13 13 13 13 13 13 13 13 12 12 11 10 10 9 8
7 7 6 7 8 9 10 8 5 5 3 2 6 8 8 7 7 5 1 3 6 6 7 7 6 5 6 6 5 4 5 6 5 3 3 4 4 4 4 2 2 1 5 5 5 5 3 2 1 1 2 3 2 2 4 3 3 3 3 3 3 4 5 6 7 7 7 8 8 9 12 13 13 12 10 9 8 8 9 9 10 11 13 13 14 13 12 12 13 14 14 13 11 10 10 9 8
7 8 6 5 7 8 11 8 7 7 4 3 8 6 7 9 8 6 2 3 6 6 6 6 4 4 4 4 3 3 4 4 3 1 1 1 1 2 5 7 5 2 5 5 6 8 8 6 5 3 3 4 4 4 5 5 4 3 3 3 4 4 5 6 7 8 8 8 9 10 12 13 14 13 9 8 9 8 9 9 9 10 13 14 14 14 14 13 13 14 14 13 12 12 10 9 9
7 7 6 6 6 8 12 8 6 7 6 6 10 4 8 9 9 8 3 4 6 6 6 5 3 3 3 2 2 2 4 4 4 2 2 2 3 9 11 8 4 5 7 6 6 7 6 6 6 6 7 8 9 8 8 7 6 6 5 5 6 7 8 8 8 9 9 9 10 11 13 14 16 13 9 9 9 9 9 9 9 9 12 14 14 15 16 15 14 14 14 14 14 12 11 10 9
7 7 7 8 9 8 11 8 6 5 8 9 9 3 8 8 9 9 6 2 6 6 7 6 3 3 2 2 2 1 3 4 4 4 5 5 6 13 12 6 5 7 9 8 8 8 8 8 9 9 10 12 13 13 12 11 10 9 8 8 9 9 11 12 11 12 11 11 12 13 15 15 16 13 11 11 10 11 11 10 10 9 11 14 14 15 16 16 15 15 14 15 14 12 12 11 10
7 8 5 8 11 8 9 10 8 8 9 10 5 3 8 8 8 10 10 4 3 4 5 5 3 3 2 2 2 2 3 4 5 7 9 8 9 13 13 8 7 8 9 8 8 10 10 10 11 12 12 13 13 12 11 11 10 10 8 9 9 10 12 13 14 14 14 14 14 15 15 14 15 14 13 12 12 12 11 10 10 10 11 13 14 15 15 16 15 14 15 15 14 13 13 12 10
9 9 5 7 9 8 10 10 9 11 11 9 8 8 9 9 9 11 11 8 4 3 2 3 4 4 2 2 1 2 4 5 6 8 8 7 7 9 9 6 6 6 7 8 7 8 9 8 10 10 9 9 9 8 7 6 7 8 8 8 9 11 13 13 15 15 15 14 14 14 13 14 16 15 14 13 13 12 11 11 11 11 12 13 15 16 16 17 15 14 14 15 14 12 12 11 10
11 11 7 8 9 7 8 10 7 10 10 8 9 9 9 9 10 11 11 9 7 6 4 2 3 4 1 1 2 3 6 6 7 8 8 6 6 6 5 5 5 4 4 5 6 7 8 8 7 6 6 7 7 7 7 7 8 9 9 9 10 14 15 15 15 16 15 15 14 13 13 14 15 14 15 14 13 13 13 13 12 12 13 13 14 16 17 17 16 14 14 14 14 12 10 11 10
10 11 9 9 11 8 9 10 7 6 6 7 9 10 10 10 10 10 10 9 9 8 7 5 4 5 5 7 8 8 8 8 9 10 10 9 8 7 6 5 5 4 2 0 2 3 4 4 4 3 3 4 5 8 9 10 11 11 11 12 14 15 16 16 16 15 15 15 15 14 14 15 14 13 16 15 13 13 14 15 15 14 13 13 13 15 17 16 15 15 14 14 14 13 11 11 12
9 10 9 9 10 9 10 9 6 5 4 7 10 11 11 10 10 10 9 10 10 9 9 8 7 7 7 10 11 10 9 9 10 11 11 11 10 8 7 6 6 5 4 2 1 1 1 2 2 1 1 1 4 7 8 8 10 11 11 12 14 14 14 15 16 15 14 14 15 15 16 15 15 15 16 17 15 13 15 17 16 15 15 14 13 13 14 14 15 15 15 14 14 13 12 12 14
9 8 8 8 8 9 9 8 7 5 4 8 11 10 10 10 10 10 10 10 10 10 11 11 10 10 9 11 11 11 11 11 11 12 12 12 12 10 9 8 8 7 5 4 2 1 1 1 2 2 1 2 4 6 7 8 9 10 11 13 14 13 12 12 13 13 13 14 15 16 16 15 15 16 17 18 16 14 15 16 16 16 17 17 15 14 13 13 15 17 17 16 14 13 13 13 16
9 8 8 8 10 10 7 7 8 6 5 9 12 9 8 8 9 9 10 10 10 12 13 12 11 11 12 12 12 12 12 12 12 12 13 15 16 15 15 13 12 10 9 8 6 4 3 3 4 3 3 3 4 5 6 8 8 9 10 12 13 12 12 11 12 13 13 14 15 17 17 16 16 18 20 19 17 15 16 17 17 18 19 20 20 18 16 15 16 17 18 17 15 15 15 15 17
9 9 8 8 11 10 6 10 11 7 7 12 12 8 6 6 8 8 8 9 10 11 12 11 11 11 12 13 13 13 12 11 11 12 13 15 16 17 18 17 15 14 14 12 11 10 8 6 5 3 3 2 3 4 5 6 7 8 9 10 10 11 12 13 14 14 13 14 15 16 17 17 17 19 20 19 18 19 19 18 19 21 22 23 24 23 20 19 19 19 20 19 18 18 16 15 15
9 10 9 7 12 10 9 14 12 7 7 12 11 7 6 6 7 8 7 8 10 10 10 10 10 11 11 12 12 12 11 11 11 12 12 14 15 16 18 18 17 16 15 14 12 12 11 11 9 7 5 3 1 2 4 5 7 9 9 9 9 9 10 13 14 13 12 12 14 15 16 17 17 18 19 19 19 20 19 18 19 22 24 24 26 27 25 22 22 22 23 23 22 20 17 15 15
7 11 10 6 10 11 11 13 11 5 6 11 11 7 5 7 6 7 7 9 11 10 10 10 10 10 10 10 10 11 11 10 11 12 13 15 16 17 17 18 17 16 15 14 13 13 12 12 11 9 7 5 3 2 3 5 7 9 9 10 10 10 11 14 13 12 11 11 12 14 15 15 16 17 17 18 19 19 18 18 20 23 24 25 25 27 26 25 24 24 24 25 24 22 18 16 15
6 12 13 9 8 10 11 11 9 4 5 9 11 9 4 7 6 6 8 10 10 9 10 10 9 10 10 10 10 11 11 11 10 11 12 14 16 17 17 17 16 15 14 14 13 13 13 12 11 9 8 6 6 4 3 5 8 9 9 10 11 11 13 14 12 11 12 12 11 12 13 13 13 14 16 17 17 18 18 19 20 21 22 24 26 26 27 27 25 24 25 24 24 24 22 19 17
4 11 15 11 9 10 10 9 8 4 4 7 11 10 7 7 7 7 9 9 9 9 9 9 9 9 9 10 10 10 10 10 10 10 12 14 16 16 16 16 15 15 15 14 13 13 12 12 11 10 9 8 7 7 6 6 7 8 8 9 11 12 12 12 11 10 10 11 11 12 12 11 11 13 15 17 17 17 18 18 19 20 20 21 23 25 27 27 25 25 27 25 24 25 24 22 18
5 9 11 10 8 9 8 8 7 5 5 8 12 13 9 5 9 8 9 9 8 8 8 8 8 8 9 9 10 10 9 9 9 10 12 14 15 16 16 16 16 16 16 15 15 14 14 13 13 12 11 10 8 8 9 9 8 6 7 9 11 13 13 12 11 10 9 10 11 11 11 10 10 12 14 17 18 18 19 18 18 19 20 20 22 24 26 26 25 26 27 27 25 23 23 23 19
7 9 9 8 8 7 6 7 6 6 8 10 12 15 10 5 8 8 6 7 9 9 7 7 7 8 9 9 9 9 9 8 8 10 12 14 14 15 16 16 17 17 16 16 16 16 15 15 14 13 13 12 11 11 10 9 9 7 6 8 10 12 13 13 12 12 11 10 10 11 11 11 11 13 12 14 17 19 18 17 18 20 19 20 23 25 26 27 26 27 27 27 26 24 22 21 20
8 9 9 8 8 6 6 7 6 7 8 8 11 13 11 6 6 7 7 9 10 9 7 8 8 8 9 8 8 8 8 8 8 9 10 12 14 15 16 17 17 17 18 18 17 16 15 15 15 14 14 13 12 12 11 10 9 8 7 8 9 10 11 12 12 12 12 11 11 11 12 12 12 13 12 12 14 16 17 17 18 20 20 21 24 27 27 28 27 26 26 27 26 26 24 21 19
10 10 9 10 8 7 9 9 9 8 5 6 10 11 8 2 6 10 10 10 10 10 9 9 8 9 8 8 8 8 8 9 9 9 10 11 14 15 16 17 17 17 18 18 17 17 16 15 15 14 14 13 13 13 12 11 10 9 9 8 8 8 9 10 11 12 12 12 12 12 12 13 13 14 13 13 14 14 15 17 19 21 21 21 24 27 28 27 27 26 26 27 25 24 24 23 21
12 10 10 11 9 9 10 9 9 8 5 7 7 9 6 5 8 11 12 11 11 12 11 10 9 9 8 8 8 8 9 9 9 10 10 12 14 15 16 16 16 16 17 17 16 16 15 15 16 15 15 14 14 13 12 11 11 10 10 10 8 8 8 9 11 11 11 11 11 11 12 13 14 14 13 13 15 14 15 17 19 22 22 21 23 26 26 26 26 27 27 27 27 25 24 24 23
12 11 11 10 8 8 9 8 9 9 7 8 6 6 5 5 7 11 12 11 12 12 11 10 9 8 8 8 8 9 9 9 9 10 11 12 14 15 14 15 15 15 16 16 16 16 15 15 15 16 16 15 15 14 13 12 12 11 10 10 10 9 8 9 10 11 11 10 11 12 14 14 15 15 14 14 15 15 17 17 18 21 22 23 24 25 26 25 25 27 28 28 28 28 25 24 23
11 10 11 11 10 7 4 2 3 5 7 8 5 2 3 4 8 11 11 11 12 12 11 10 9 8 7 7 8 8 8 9 9 9 10 12 13 13 13 14 15 15 15 16 16 16 15 15 15 16 16 15 15 15 14 13 13 12 11 10 10 10 10 10 11 12 12 12 12 13 15 15 16 16 15 15 15 15 17 17 16 18 19 22 25 25 27 27 26 27 28 26 26 26 25 23 22
8 9 10 7 7 5 4 3 3 3 6 6 4 5 6 5 6 8 10 11 11 11 11 10 9 9 8 8 8 8 8 8 8 8 9 10 11 12 13 14 15 15 15 15 16 16 15 15 16 16 17 17 17 16 15 14 14 14 13 12 12 12 12 13 13 13 13 13 14 14 15 16 16 16 15 15 16 17 17 16 16 17 17 21 25 25 28 28 27 28 26 22 22 23 23 24 24
7 10 10 5 2 3 5 5 4 6 7 5 6 9 10 7 5 8 11 12 11 10 10 9 9 9 8 8 8 8 8 8 8 9 9 11 12 13 14 15 15 15 15 15 15 15 14 14 15 15 16 17 17 17 15 14 15 14 13 14 14 13 14 14 15 14 13 13 14 14 14 14 16 17 16 16 16 16 17 16 16 17 17 20 23 25 28 28 28 28 25 22 22 22 22 23 23
6 8 9 7 4 7 8 6 7 10 8 5 8 11 9 8 7 10 13 13 13 11 9 9 9 8 8 8 8 9 9 8 9 9 9 11 12 13 14 14 15 15 14 14 14 15 15 14 14 15 16 16 16 16 15 14 15 14 14 15 15 14 14 14 15 15 14 14 15 14 13 13 15 16 16 17 16 15 17 17 16 17 17 18 21 25 28 28 27 27 25 23 23 22 22 22 21
7 7 9 7 5 6 8 6 6 9 8 6 8 9 7 5 8 14 14 13 14 12 10 9 9 9 8 8 7 8 8 8 9 8 8 11 12 13 14 14 14 13 14 14 14 15 15 15 16 16 17 17 17 17 16 16 15 15 16 17 16 15 14 14 15 16 15 15 15 15 14 13 14 15 16 16 15 14 16 17 16 16 17 17 19 23 26 27 27 26 24 23 23 22 22 22 20
9 8 10 9 5 4 6 6 4 6 8 8 7 7 5 3 5 13 15 13 13 12 11 10 10 10 9 8 8 8 8 8 8 7 8 11 12 12 13 13 13 13 14 14 14 14 15 16 17 17 18 18 19 18 18 17 17 17 18 18 18 17 15 15 16 16 15 15 14 15 15 14 13 14 15 15 14 14 15 16 16 16 17 17 18 20 24 26 26 24 23 23 23 23 22 21 20
10 9 10 11 7 5 7 6 4 5 6 6 7 6 5 4 2 10 14 12 12 12 12 12 11 10 10 9 8 8 8 8 8 8 9 10 11 12 13 14 14 14 15 16 15 15 16 17 17 17 18 19 19 19 19 18 18 19 19 19 18 18 16 16 17 16 15 14 14 14 14 13 13 15 15 14 14 14 14 14 15 16 17 18 18 19 22 25 25 24 23 23 23 23 23 22 21
Wind_Direction
184 175 166 163 209 240 224 226 239 189 235 253 246 254 174 123 327 267 223 181 232 58 9 3 63 325 313 24 78 75 38 19 12 350 66 92 134 146 152 146 141 146 149 147 150 157 162 165 165 164 162 159 156 153 152 151 150 147 145 142 140 139 138 138 135 134 133 130 129 130 131 130 130 128 123 121 120 118 114 112 112 111 112 111 110 109 106 103 102 100 99 99 100 100 100 100 101
193 179 168 182 218 238 214 211 253 210 221 247 239 241 112 102 202 232 265 32 41 54 53 83 106 67 10 63 78 78 54 39 41 61 90 118 131 144 153 148 146 146 148 148 151 154 158 165 166 165 163 160 157 153 149 147 146 145 143 142 141 140 139 136 134 135 130 129 130 130 130 130 132 131 127 125 124 121 116 114 114 112 112 110 109 108 105 105 102 100 101 100 101 101 100 100 100
177 185 194 206 212 238 229 207 247 238 228 251 238 189 144 194 191 107 33 23 62 74 87 109 114 52 294 141 53 42 73 57 71 88 111 137 137 148 153 148 147 146 149 149 151 154 154 165 166 165 164 161 158 154 150 146 145 144 142 141 140 139 139 135 134 133 129 129 130 129 130 131 134 133 130 128 127 125 121 118 116 114 113 110 107 104 103 105 102 101 105 105 103 102 102 101 101
161 189 216 223 209 223 222 214 241 250 238 255 254 120 157 203 117 75 41 24 97 122 73 128 123 33 358 85 57 64 81 72 92 103 124 145 145 150 152 148 148 145 151 152 151 153 154 165 166 165 164 162 160 158 155 152 150 147 144 141 138 138 137 135 133 129 127 129 130 131 131 132 136 136 132 130 131 129 127 124 121 118 116 113 110 106 107 109 104 104 107 108 107 106 103 103 104
167 191 221 248 242 225 228 233 240 243 245 271 305 89 124 115 80 54 32 33 168 157 41 330 108 88 60 51 15 73 84 96 108 114 128 135 142 150 152 149 148 146 151 153 151 151 155 164 165 165 165 165 164 162 161 158 155 149 143 141 139 139 137 134 130 129 130 130 131 131 132 132 136 138 135 133 134 134 132 128 126 125 121 120 120 117 118 115 108 107 107 107 109 107 103 104 104
181 183 199 246 267 308 246 234 226 230 248 291 318 76 110 87 51 19 27 78 173 191 351 341 53 111 97 60 45 56 62 108 117 127 137 139 146 151 149 149 151 148 149 152 152 149 154 162 163 164 164 164 164 164 163 159 154 146 141 140 141 140 136 132 131 132 132 130 130 131 133 134 137 142 139 137 138 139 138 133 131 131 129 127 125 126 125 115 109 110 107 104 105 105 103 103 101
194 188 186 219 206 235 243 236 238 231 197 300 294 66 100 50 23 347 16 133 159 196 233 317 147 119 102 107 83 62 34 37 130 139 141 143 146 149 149 151 151 148 148 150 150 146 156 162 162 163 161 161 160 160 160 157 151 145 142 141 142 140 134 133 134 133 131 128 128 128 131 133 140 147 142 141 142 140 141 139 136 136 135 130 126 130 122 110 108 112 108 102 102 104 105 104 102
206 218 194 228 208 204 243 242 246 250 92 35 285 329 351 347 339 307 321 168 154 175 186 166 188 132 103 163 104 76 58 71 125 128 137 141 144 149 150 152 150 148 147 147 147 148 158 160 160 160 159 160 157 157 158 156 151 147 145 143 141 139 136 136 136 134 133 132 130 129 130 129 137 145 145 147 146 143 145 146 142 138 135 133 133 131 117 108 111 113 109 104 103 104 105 106 104
202 226 211 237 237 209 238 241 240 255 243 280 271 266 295 308 294 278 249 183 149 168 149 152 202 150 120 129 106 103 77 96 122 127 138 140 144 149 150 154 150 149 148 148 147 147 157 159 159 159 160 161 158 159 158 157 153 149 145 142 141 139 140 140 138 137 136 134 132 133 136 135 137 143 145 149 152 150 151 151 146 139 139 143 140 127 112 108 111 113 111 107 106 105 106 109 108
197 223 235 233 245 228 228 231 226 225 208 246 267 268 303 302 267 249 239 174 161 161 125 143 192 138 129 123 112 116 94 120 132 133 140 142 146 150 152 156 152 151 150 150 146 145 155 160 161 160 163 162 161 162 158 157 153 149 145 144 144 143 145 143 142 141 139 136 135 139 143 143 142 141 139 144 154 157 157 154 148 144 146 150 140 122 110 110 113 114 114 110 106 104 107 112 114
204 196 247 239 233 235 232 223 211 171 129 200 208 325 349 311 258 226 218 154 162 149 136 171 145 127 129 117 111 111 123 145 141 137 143 146 148 153 154 154 153 153 151 150 146 146 153 159 163 163 165 164 163 162 156 155 151 148 148 146 147 148 150 147 146 145 142 140 142 147 146 144 141 140 138 141 151 158 158 153 151 150 150 151 139 121 113 114 116 119 118 112 104 101 106 114 117
228 178 213 239 237 233 253 251 227 150 148 173 109 48 2 296 232 199 183 154 159 144 143 180 138 136 137 120 119 125 143 148 136 138 145 149 149 152 154 153 154 154 152 150 148 149 151 155 160 163 166 164 162 158 154 153 150 151 151 150 151 153 154 151 150 149 146 146 149 148 144 145 143 141 142 142 145 155 159 154 152 152 153 150 136 123 120 121 122 124 122 114 105 102 105 112 116
239 198 218 237 254 250 264 258 212 179 163 109 43 13 347 245 207 189 165 148 154 140 116 112 134 143 125 115 129 146 153 144 138 144 148 150 148 147 153 156 155 151 151 151 150 150 151 154 157 162 166 163 160 157 155 155 152 153 152 154 156 156 157 154 154 153 152 153 151 146 145 148 147 145 146 145 143 149 159 157 154 154 156 149 136 128 127 128 128 126 123 116 109 106 107 111 114
232 228 247 239 240 250 251 243 178 185 147 76 33 4 349 197 237 200 162 142 121 113 100 95 134 135 122 129 151 168 158 149 149 149 151 149 144 148 153 158 154 148 150 152 152 152 154 156 157 162 161 160 160 158 157 158 156 155 154 156 157 157 159 157 156 158 158 155 150 147 147 149 150 150 149 149 144 144 156 158 156 160 160 150 140 136 135 137 134 130 126 118 111 109 109 111 114
230 218 250 252 230 220 218 221 179 186 100 66 33 5 77 95 141 210 147 116 94 104 119 110 140 146 151 165 170 165 154 151 154 149 151 148 144 147 150 157 152 147 152 156 156 156 158 157 159 161 157 158 158 155 158 159 158 157 156 157 159 159 160 160 159 161 161 154 150 149 149 150 152 155 156 155 152 149 151 158 162 163 160 152 146 143 141 144 141 135 130 121 112 108 109 111 115
228 222 232 245 230 204 182 174 178 179 84 66 37 5 152 109 77 151 34 88 110 118 127 101 19 343 145 159 137 146 148 150 153 148 149 148 144 144 147 158 156 150 154 160 162 161 163 161 160 161 161 161 155 151 155 157 160 159 159 160 161 163 163 162 161 161 159 155 153 152 150 152 153 157 162 163 160 152 148 163 170 164 159 154 150 146 146 150 147 139 133 124 112 106 107 111 115
203 231 228 227 221 197 168 171 169 134 76 56 37 10 145 121 96 92 100 123 115 111 89 77 48 39 87 96 121 136 144 148 149 148 151 151 148 148 154 163 163 158 159 165 168 167 168 165 163 166 166 165 158 152 152 157 161 158 159 161 161 165 166 163 159 156 156 157 155 154 155 156 156 157 160 160 160 155 155 169 171 162 160 157 152 149 151 154 150 142 135 125 114 108 106 107 112
198 221 223 220 213 179 141 136 72 41 50 33 30 16 348 138 125 134 140 119 109 110 100 89 75 70 80 104 124 134 143 148 151 155 156 156 154 159 166 169 171 167 166 169 171 171 170 167 168 170 168 168 162 154 154 159 159 157 161 160 159 164 165 162 156 155 159 162 162 160 162 164 161 158 158 156 153 155 160 166 164 162 162 159 153 152 156 156 151 145 138 129 119 106 102 108 114
213 218 222 226 205 111 78 65 42 16 13 10 19 18 348 127 121 171 168 131 133 127 113 120 104 96 108 121 131 137 145 151 158 162 157 160 163 167 172 174 178 176 172 169 170 173 171 168 170 169 168 170 163 156 160 161 158 161 165 163 164 164 164 165 164 165 169 171 169 167 169 171 165 159 158 155 152 155 161 162 162 164 163 160 155 154 157 156 151 147 143 133 116 100 106 123 125
215 216 227 216 142 103 102 52 23 13 355 352 4 10 30 104 79 238 162 140 147 135 133 151 139 139 139 138 141 143 149 155 163 167 162 167 167 169 176 182 187 184 178 172 171 173 171 168 168 170 170 171 168 163 165 165 164 165 168 169 171 170 168 172 175 177 178 175 172 173 177 175 170 164 160 160 158 158 159 157 160 163 161 159 155 154 158 157 151 151 147 134 118 112 127 135 130
192 208 236 120 97 189 140 113 23 13 342 340 345 348 107 95 307 241 159 152 148 137 146 152 154 155 148 148 150 149 153 160 168 171 171 172 166 167 178 188 192 187 179 174 174 174 171 167 168 172 172 173 174 170 168 169 170 169 172 173 173 175 175 178 181 182 180 176 176 182 183 178 176 172 165 166 163 159 156 152 156 159 159 159 155 156 159 156 153 156 156 146 141 142 139 133 132
192 209 244 20 172 205 114 103 27 357 323 325 327 346 56 9 212 206 204 157 112 111 136 134 148 154 152 153 152 153 159 166 171 171 176 176 167 164 169 182 191 189 181 175 177 176 172 172 172 173 176 179 180 178 172 171 173 173 176 176 175 179 180 181 182 181 179 177 182 188 185 182 184 182 176 174 173 170 163 156 157 159 161 166 168 167 163 158 160 166 168 168 162 148 138 134 133
220 208 227 236 231 226 118 143 347 336 305 312 328 353 323 224 139 146 332 48 64 50 103 131 140 148 150 152 154 159 164 168 171 173 179 175 173 170 168 180 187 188 183 177 177 172 173 177 177 176 179 184 185 184 177 173 176 175 178 181 182 182 180 181 183 180 179 180 184 185 184 186 188 188 186 184 185 183 174 165 162 163 167 175 184 181 174 174 176 175 175 173 162 151 144 138 134
233 219 200 217 229 232 242 267 294 297 289 306 321 305 266 181 120 146 83 57 48 342 153 133 135 143 148 152 156 162 164 167 170 179 184 176 177 177 176 182 185 190 186 177 176 170 175 179 179 179 181 186 187 185 181 180 179 177 179 184 190 189 184 188 188 182 181 181 184 186 186 188 190 191 191 191 193 188 181 174 168 169 172 180 190 188 187 188 185 181 176 169 164 157 149 142 139
227 231 197 203 211 218 233 253 263 276 279 293 284 251 216 113 120 143 107 57 50 148 152 136 137 145 149 152 153 161 166 166 170 180 186 174 173 180 185 186 182 192 189 176 177 179 183 183 184 185 185 188 189 187 187 185 183 183 185 187 194 194 193 197 193 187 184 184 187 188 188 191 194 195 194 193 193 188 183 181 177 176 177 181 187 191 193 192 190 185 175 169 167 161 154 149 145
209 221 214 204 207 205 220 243 248 260 266 250 223 210 144 135 183 129 87 66 110 144 149 139 146 150 148 151 152 163 166 167 173 181 185 166 168 186 192 192 183 190 192 182 182 183 187 189 189 190 190 189 187 190 188 184 184 188 192 192 193 194 199 203 197 194 194 193 194 193 194 197 199 200 199 196 193 190 188 188 186 183 182 181 185 193 196 196 195 186 177 175 171 165 160 154 151
183 214 221 218 221 211 231 248 242 253 253 227 217 181 131 172 211 114 95 115 143 149 150 149 155 150 147 151 153 164 167 171 174 179 185 169 175 191 192 196 194 193 191 185 185 180 189 196 194 193 192 188 187 192 183 181 189 195 199 197 198 202 207 208 205 204 205 206 204 197 197 203 205 203 201 201 198 197 196 196 193 189 190 186 187 194 197 198 198 191 185 181 174 169 163 159 160
150 201 213 215 224 216 228 232 224 253 228 196 214 172 145 179 179 65 91 133 162 157 156 160 160 148 147 150 152 164 166 167 169 179 191 182 187 197 197 200 195 192 189 187 183 160 181 202 199 199 195 192 193 188 178 191 211 210 208 209 216 216 219 222 219 215 215 218 213 204 203 208 210 205 199 202 205 204 204 205 201 198 199 195 193 195 197 201 201 197 193 186 180 172 164 165 167
172 199 207 187 199 208 210 210 205 242 197 165 212 180 152 139 65 50 73 158 172 166 165 162 158 148 146 151 156 161 158 160 168 183 188 190 201 199 202 199 186 187 158 156 144 115 100 223 198 203 195 199 202 197 192 206 224 218 214 220 232 233 237 244 239 233 230 230 224 216 215 215 214 210 200 198 208 212 208 208 206 205 203 198 197 197 197 202 203 199 195 193 187 178 172 171 171
191 206 226 175 185 197 182 186 196 218 194 134 222 193 138 98 58 41 42 196 179 172 172 163 156 152 150 154 157 149 146 151 162 183 175 185 200 197 207 174 144 12 58 94 123 130 154 156 147 183 191 194 193 202 202 209 224 223 221 224 233 243 251 256 252 249 248 245 243 237 233 226 219 211 198 196 210 217 213 209 209 209 204 197 197 197 195 200 203 201 197 196 192 187 182 177 177
191 190 227 203 194 174 155 173 195 196 174 188 234 213 116 88 57 42 60 194 188 176 175 169 157 149 145 146 142 131 141 141 138 168 349 220 206 62 35 51 72 65 80 121 158 157 162 153 148 166 183 194 196 202 203 213 223 227 238 228 216 226 245 256 258 255 253 252 251 250 246 237 228 215 196 198 209 216 218 214 214 212 203 197 199 199 196 197 201 202 201 198 195 195 191 185 184
197 185 201 205 200 153 143 167 201 197 166 192 237 212 107 83 57 45 59 182 191 185 178 173 160 149 144 140 130 117 133 115 99 76 18 338 12 56 57 58 102 147 128 137 157 149 152 160 172 181 184 189 196 200 201 205 212 219 229 223 215 217 224 234 243 243 241 243 244 247 250 245 240 227 203 203 209 213 219 218 219 216 205 201 203 201 199 199 200 201 203 202 199 198 196 193 188
197 209 195 188 198 161 145 160 186 196 164 183 235 215 104 80 57 50 47 146 192 194 175 167 163 162 178 165 144 119 118 96 76 51 38 14 31 72 89 106 128 128 121 131 149 153 162 177 190 196 194 192 193 197 201 207 211 218 222 220 220 221 222 223 226 229 227 226 227 235 244 245 242 232 212 207 207 209 216 223 222 212 207 207 205 203 204 204 202 201 202 204 204 201 199 196 191
187 212 202 182 195 173 150 155 162 181 182 180 195 103 90 71 55 52 42 50 171 186 170 166 163 162 209 214 165 118 86 69 56 47 41 27 42 83 104 110 111 115 118 135 155 164 169 176 187 197 203 201 199 201 206 213 217 218 221 226 229 231 232 231 228 226 223 222 220 223 233 239 235 228 220 214 211 211 212 221 222 209 206 208 206 206 209 210 206 203 203 203 204 207 205 198 193
183 193 193 178 190 186 162 151 154 181 193 173 139 112 93 72 56 52 43 42 75 107 123 162 165 161 200 238 214 91 66 52 50 46 39 35 55 90 105 97 95 103 121 146 162 167 170 179 190 197 202 197 199 210 211 221 230 228 233 244 248 245 242 241 238 234 231 229 225 222 226 236 238 233 229 226 222 218 212 216 222 215 207 202 203 206 212 214 209 206 206 203 203 209 209 199 190
181 182 189 178 180 187 153 131 140 173 177 153 134 121 96 74 61 54 47 48 63 79 78 98 148 145 129 358 4 43 55 50 46 42 42 61 88 105 109 95 92 101 128 157 165 167 175 185 189 192 194 180 182 197 196 204 223 234 240 243 246 247 244 243 245 245 244 243 239 233 227 233 240 237 234 235 231 226 220 220 225 224 212 202 204 208 210 213 208 206 209 205 201 201 199 191 180
178 183 193 183 181 176 142 127 130 151 139 116 118 110 90 74 63 56 52 56 59 66 73 76 94 89 56 46 48 52 59 55 51 52 54 67 86 97 98 92 94 103 105 162 197 197 198 196 185 183 190 175 183 200 201 203 212 221 227 229 234 240 240 241 247 250 249 248 246 241 235 232 232 230 232 234 232 228 225 223 223 223 216 209 213 214 212 212 207 205 208 207 203 199 191 183 178
183 191 189 184 187 167 141 135 134 153 141 124 122 105 88 77 69 61 58 62 59 59 66 68 72 70 58 56 56 56 59 57 53 56 62 69 76 83 85 78 74 79 73 42 328 286 241 212 204 204 205 205 212 215 213 211 216 220 221 227 234 239 241 241 246 251 250 249 247 243 240 238 231 227 230 229 226 224 226 228 224 221 219 217 220 220 216 212 206 204 205 204 204 203 199 187 180
193 195 188 190 180 141 128 127 136 166 164 138 132 109 90 83 75 68 66 69 67 66 66 61 60 61 59 57 56 54 53 50 45 46 54 63 65 63 64 64 65 72 78 72 50 5 254 251 296 306 288 255 235 222 220 223 227 228 229 232 235 239 244 246 249 251 249 247 243 241 241 242 237 231 230 230 227 221 223 225 219 217 220 220 222 223 219 213 209 207 206 204 202 207 210 200 188
203 197 191 192 171 155 154 141 138 155 160 148 137 116 105 102 92 80 76 81 80 77 72 62 60 63 62 59 55 53 51 46 41 36 37 44 46 45 41 41 46 52 55 52 34 8 335 302 295 287 278 269 252 238 241 243 238 235 235 238 241 242 242 244 247 247 246 243 238 237 236 234 236 237 237 236 231 224 226 226 222 221 222 222 224 224 221 217 212 208 208 207 205 208 210 205 197
204 203 203 187 174 180 160 133 135 132 145 153 145 132 128 127 118 104 93 95 89 81 75 64 59 60 60 60 55 52 50 45 42 36 31 33 37 38 34 32 35 38 37 34 26 18 10 3 355 329 308 293 263 248 248 245 236 232 233 239 242 241 243 246 247 246 243 240 238 237 235 230 230 238 240 238 236 235 234 230 229 231 227 225 226 224 223 224 217 208 207 208 209 213 209 202 200
195 205 219 190 177 177 131 133 148 147 161 173 179 178 155 146 129 118 117 104 88 77 74 64 54 52 51 53 52 50 50 46 45 41 35 33 32 35 34 31 33 34 32 28 27 29 26 26 25 19 19 19 341 264 243 236 233 232 233 238 236 233 242 250 254 257 249 242 244 243 240 235 230 234 238 236 238 240 236 228 232 235 230 225 225 225 226 229 225 215 212 211 212 217 214 205 200
194 194 211 201 182 176 151 160 176 179 173 181 204 223 164 157 140 124 134 117 98 85 76 68 56 50 49 49 47 45 44 42 42 39 36 33 31 32 31 29 30 31 29 25 26 29 30 31 28 27 31 24 10 334 259 242 240 240 242 250 252 246 248 254 261 267 264 257 255 250 247 243 237 237 240 239 239 241 237 232 234 236 232 228 229 228 225 226 228 223 219 217 215 218 218 212 204
195 171 189 201 192 185 176 185 199 186 132 161 205 239 205 166 155 150 156 132 112 98 81 71 64 56 52 50 45 43 41 36 35 34 32 31 31 31 30 28 28 29 30 27 26 25 26 26 23 24 27 22 13 356 302 256 242 242 248 256 259 255 256 265 269 268 270 269 265 258 254 250 244 243 243 242 243 242 237 234 232 230 229 229 230 230 225 223 225 226 224 220 218 221 222 220 211
172 154 186 200 201 203 195 200 210 184 151 180 197 220 224 166 154 179 175 147 121 104 87 73 67 59 53 51 47 45 43 39 38 35 32 32 31 31 30 29 29 29 30 29 27 25 26 25 22 22 20 14 5 349 325 298 269 253 256 263 263 261 264 276 280 274 275 272 266 262 257 250 244 247 249 248 250 246 238 234 230 227 226 227 229 228 225 223 222 225 224 218 216 220 221 221 217
136 148 188 194 203 218 213 217 217 184 205 215 186 193 218 168 151 180 185 168 140 112 93 79 71 62 55 49 46 46 43 42 40 37 36 35 34 33 32 32 31 29 27 26 26 25 26 25 23 24 20 11 360 346 335 326 317 294 272 269 269 270 272 278 281 276 275 272 271 271 267 257 242 242 249 252 254 252 244 237 232 229 227 227 228 225 221 220 219 221 222 217 213 213 215 219 217
143 162 186 183 195 214 218 229 231 203 218 222 186 187 215 197 164 174 169 147 132 121 105 92 79 65 58 48 44 43 40 40 38 36 35 34 34 32 31 32 30 28 25 24 23 20 20 21 19 20 18 12 4 354 344 336 334 325 303 287 281 281 281 281 281 278 279 279 276 274 271 264 252 244 243 246 253 253 249 244 238 234 229 227 228 224 219 218 217 218 220 219 214 210 213 220 219
174 187 188 182 185 197 206 210 223 223 219 203 171 181 216 219 171 155 122 105 113 120 110 96 82 68 61 49 44 41 37 37 33 33 32 28 29 27 26 27 24 21 20 19 18 15 14 15 14 15 14 11 6 360 353 345 339 332 320 307 295 290 289 288 287 283 280 277 273 271 269 267 262 255 246 246 254 252 247 245 241 238 233 228 225 221 219 220 219 218 219 220 217 214 215 220 222
199 198 188 190 183 185 203 200 204 217 200 151 152 177 209 181 122 134 122 108 109 106 95 89 81 72 64 52 46 40 35 34 30 28 26 24 23 20 20 21 18 17 15 13 12 10 10 9 7 7 7 7 4 360 356 350 346 340 329 317 302 291 288 285 283 278 273 271 270 267 268 270 269 262 253 252 254 247 244 246 243 240 238 232 225 221 221 221 219 218 217 217 218 215 213 220 224
203 200 192 198 187 184 199 195 197 203 155 118 153 183 180 122 114 123 118 110 106 99 94 89 82 75 66 56 49 43 38 33 30 27 24 22 20 18 18 17 15 14 11 10 8 6 6 4 1 358 357 359 359 357 354 349 347 346 336 324 313 300 292 287 281 276 270 268 267 264 265 268 268 263 256 255 256 246 245 249 245 241 240 236 228 222 221 221 219 218 215 215 218 217 214 219 224
200 204 202 207 203 194 199 198 198 195 150 122 156 191 172 151 131 120 120 114 105 101 100 95 86 77 71 62 54 48 42 35 32 30 27 24 20 18 18 16 14 11 9 9 6 2 1 359 357 353 351 352 352 352 351 345 343 344 339 332 325 312 298 289 284 282 277 269 264 263 263 261 260 260 254 253 254 246 244 248 245 242 240 235 228 223 222 222 220 220 218 217 220 220 217 218 224
195 207 209 211 216 202 184 200 197 176 150 129 144 151 88 107 115 120 129 120 109 107 103 99 89 81 75 66 57 50 42 36 32 31 30 28 25 23 21 18 16 13 11 10 7 4 2 358 356 352 351 351 350 350 349 343 340 339 339 337 332 324 311 298 290 286 283 278 270 263 262 260 258 259 256 251 248 244 241 242 242 241 238 232 227 224 222 220 219 220 218 217 220 221 217 217 222
180 205 208 205 222 201 152 112 68 136 168 148 147 134 110 116 120 129 139 125 118 114 104 101 93 83 76 66 58 49 43 38 34 35 32 28 25 26 27 25 22 18 14 13 11 10 7 4 1 357 354 354 353 352 348 342 340 338 339 339 336 330 323 313 304 294 288 284 278 268 263 262 260 260 259 253 247 245 242 239 237 235 233 231 229 227 226 223 221 219 215 214 220 223 220 219 221
181 201 192 164 203 205 184 173 152 187 195 169 174 166 153 165 154 141 149 137 125 121 112 107 95 83 76 66 59 51 46 42 39 38 31 24 22 24 29 30 27 24 20 17 16 15 13 13 10 4 1 0 358 356 351 346 343 340 339 338 335 333 329 322 313 304 294 285 280 276 270 268 267 265 263 257 249 244 241 238 235 232 229 231 232 231 229 224 220 217 212 212 217 221 225 224 221
225 207 179 170 195 194 197 195 181 195 197 168 178 178 175 186 163 151 159 146 133 130 121 109 93 83 77 68 62 54 49 44 43 38 27 23 22 22 26 25 22 23 23 20 19 18 16 13 10 7 4 4 2 0 358 355 351 347 341 336 333 331 331 327 322 315 305 291 284 282 279 276 274 269 264 259 252 244 240 237 236 234 230 229 231 231 227 221 217 216 212 212 216 221 226 224 219
238 227 192 199 220 194 191 194 192 200 195 168 173 186 192 178 155 159 160 147 140 138 125 109 93 84 79 71 66 59 53 47 40 32 24 24 23 22 22 19 17 19 20 19 19 19 17 11 9 7 3 1 2 2 1 358 356 353 346 340 334 331 329 327 324 321 313 302 293 289 286 284 279 273 265 260 255 249 244 240 237 233 226 224 227 227 221 216 216 217 215 214 216 219 222 221 219
203 212 197 197 211 204 192 194 210 217 200 177 174 188 171 105 134 157 151 142 143 139 126 112 99 92 85 75 73 65 57 52 42 35 31 26 23 22 22 20 18 17 17 16 16 16 14 12 12 8 4 3 2 2 0 358 357 355 351 347 341 335 331 327 323 320 314 309 304 298 292 290 286 276 268 263 258 252 248 245 241 234 224 217 219 217 213 212 215 218 219 219 218 218 219 220 219
195 201 200 196 195 195 187 185 204 229 215 189 188 181 130 62 77 143 139 136 135 129 121 113 105 102 93 83 80 72 61 55 49 43 35 28 24 23 22 22 21 19 18 16 15 15 14 14 13 9 6 5 2 0 359 358 358 355 353 352 348 343 338 331 326 320 317 316 314 308 300 293 287 280 273 266 259 254 251 248 246 242 229 217 215 210 206 209 213 215 218 221 222 220 219 219 218
Height
796 797 796 797 795 796 793 790 798 795 795 800 787 782 781 775 778 779 778 776 776 775 770 770 770 770 773 773 773 777 780 781 786 790 795 794 790 792 792 793 795 796 799 801 803 804 806 807 808 809 810 811 812 813 815 816 818 819 820 821 822 823 824 825 825 825 826 826 827 828 830 831 832 833 834 834 834 835 835 835 835 835 835 835 835 835 835 835 835 836 836 837 837 837 838 838 838
797 798 796 797 795 796 792 789 801 797 797 802 784 779 778 775 781 781 779 778 779 776 769 769 769 771 771 768 768 773 782 784 783 786 791 791 791 793 793 795 795 797 800 801 804 805 807 808 809 810 811 812 813 814 815 817 818 819 821 822 823 824 825 826 826 827 827 828 829 830 832 833 834 834 835 836 836 837 837 837 836 837 837 837 836 836 836 836 837 838 838 838 838 838 839 839 839
797 797 796 797 793 793 791 793 801 797 799 799 781 774 776 779 781 780 780 778 777 774 770 770 771 774 772 773 775 779 787 785 783 785 789 791 791 793 794 795 796 798 800 802 805 806 808 809 810 811 812 813 814 815 816 817 818 820 821 822 824 825 826 827 828 829 829 830 831 832 833 835 836 836 836 837 838 838 839 838 838 838 838 839 838 838 838 838 838 839 839 839 839 840 840 840 840
797 797 796 794 793 793 794 799 798 795 798 791 780 775 777 779 779 779 779 776 774 773 773 772 775 774 773 782 781 781 789 787 785 787 789 790 790 793 794 795 797 799 801 803 805 807 809 809 811 812 813 814 815 816 816 818 819 820 822 823 825 826 827 828 830 830 831 832 833 834 835 836 837 837 838 838 839 840 840 840 840 840 840 841 840 840 840 840 840 840 840 840 840 841 841 841 842
797 797 796 793 795 794 793 798 795 796 793 783 781 779 778 778 779 782 777 775 773 774 775 773 777 776 774 782 780 784 791 787 786 786 789 791 791 794 795 797 798 799 802 804 806 808 809 809 811 812 813 814 815 816 817 819 820 822 823 824 826 827 828 830 831 832 833 834 834 835 836 837 838 838 839 840 841 841 841 841 841 842 842 842 841 841 841 841 841 841 841 841 841 841 841 842 843
796 796 795 792 793 792 795 800 797 795 785 777 782 780 780 779 781 782 777 775 773 773 775 774 777 777 781 784 781 787 789 786 787 787 789 792 793 795 796 798 799 801 803 804 807 808 810 810 811 813 814 815 816 817 818 820 821 823 824 826 827 828 829 831 832 833 834 835 835 836 837 838 839 839 839 840 841 842 842 842 843 842 843 843 843 843 843 843 843 843 842 842 842 842 842 843 843
795 795 794 794 794 794 800 799 792 789 780 778 782 780 780 780 780 781 779 778 777 775 775 776 773 777 788 786 786 790 787 787 786 788 791 792 795 796 797 799 800 802 803 805 807 809 811 811 812 814 815 816 817 819 820 821 823 824 825 827 828 829 830 832 833 834 835 835 836 837 838 839 839 840 840 841 842 843 843 843 843 843 844 844 844 844 844 844 844 844 844 844 844 843 844 844 844
795 793 792 796 798 797 800 796 789 784 781 780 780 779 780 779 780 781 781 779 780 777 776 776 771 781 790 783 789 793 789 790 787 790 793 793 796 797 799 800 801 803 804 806 808 810 811 812 814 815 816 817 818 819 821 822 824 825 826 828 829 830 831 833 834 835 836 836 837 838 839 840 840 841 841 842 842 843 843 843 844 844 844 845 845 845 846 846 846 846 845 845 845 845 845 845 845
793 793 793 797 797 798 798 794 789 783 781 781 779 779 778 778 778 781 780 778 779 777 777 776 772 783 789 785 792 792 790 793 791 793 794 795 797 797 800 800 802 803 805 807 808 811 812 814 815 816 817 818 819 820 822 823 825 826 828 829 830 832 833 834 834 836 836 837 838 839 840 841 841 842 842 843 843 844 844 844 844 845 845 845 846 846 847 847 847 847 846 846 846 846 846 846 846
792 792 794 797 797 800 797 791 787 783 781 780 779 778 777 777 777 779 779 778 776 776 778 774 774 782 786 789 792 791 793 794 793 795 795 797 797 798 800 801 803 804 806 808 809 811 813 815 815 817 818 819 820 821 823 824 826 827 829 830 832 833 834 834 835 836 837 838 839 839 840 841 842 842 843 844 844 845 845 845 845 846 846 846 847 847 848 848 848 847 847 847 847 847 847 848 848
793 792 793 798 799 799 794 788 784 781 779 778 777 775 776 776 777 778 777 778 775 777 779 775 779 783 785 790 791 792 794 794 794 795 796 797 798 799 801 802 804 805 807 808 810 812 814 816 817 818 819 820 822 823 824 826 827 829 830 831 832 833 834 835 836 837 838 839 839 840 841 842 842 843 844 844 845 845 846 846 846 847 847 847 848 848 849 849 849 848 848 848 848 848 848 849 849
794 793 794 800 797 793 790 788 785 781 780 779 779 775 775 776 778 778 776 779 775 778 779 775 779 780 788 794 791 793 793 794 795 795 797 798 799 800 801 803 804 806 807 809 811 812 814 816 818 819 820 822 823 824 826 827 828 829 830 832 832 833 834 835 836 837 838 839 840 840 841 842 843 843 844 845 845 846 846 847 847 847 848 848 849 849 850 850 849 849 849 849 849 849 849 850 850
792 791 794 798 792 790 791 789 786 785 783 781 781 777 775 777 778 775 773 775 774 779 780 773 773 776 789 794 791 793 793 795 795 796 798 798 800 801 802 803 805 806 808 810 811 813 815 817 819 820 821 823 824 826 827 828 829 830 831 832 833 834 835 836 836 837 838 839 840 841 842 842 843 844 845 845 846 846 847 847 848 848 849 849 850 851 851 851 850 850 850 850 850 850 851 851 851
789 788 792 795 791 793 790 787 785 785 785 781 780 777 775 777 776 771 769 775 777 778 778 772 771 780 791 794 795 792 791 795 796 797 798 799 801 801 803 804 805 807 809 811 812 814 815 817 819 820 822 824 825 827 828 829 829 831 832 832 834 834 835 836 837 837 838 839 840 841 842 843 844 844 845 846 846 847 847 848 848 849 849 850 851 852 852 852 851 851 851 851 851 851 852 852 852
788 788 791 794 794 793 788 787 784 784 785 781 779 777 776 776 774 772 769 776 781 775 773 773 773 781 788 790 793 788 788 794 795 797 798 799 801 802 804 805 806 808 810 812 813 815 816 818 820 821 822 824 826 828 829 830 831 832 832 833 834 835 836 837 837 838 839 840 841 841 842 843 844 845 845 846 846 847 848 848 849 849 850 851 852 852 853 853 853 852 852 852 851 852 853 853 853
787 787 793 796 794 791 787 786 785 786 785 780 778 775 778 776 771 774 770 771 780 775 773 778 776 778 780 780 782 782 788 794 795 797 798 800 801 803 804 805 807 808 811 812 813 815 816 818 820 822 823 824 826 828 830 831 832 833 833 834 835 836 837 837 838 839 840 840 841 842 843 843 844 845 845 846 846 847 848 849 849 849 850 851 852 853 853 853 854 853 853 853 852 852 853 854 854
787 790 796 797 793 790 786 784 785 786 783 779 778 776 779 779 773 773 768 767 777 779 778 780 777 775 777 777 778 782 790 793 795 797 798 800 801 803 805 805 807 809 811 812 813 815 816 818 819 821 823 824 826 828 831 832 832 833 834 835 836 837 838 839 839 840 841 841 842 842 843 843 844 845 846 846 847 847 848 848 849 850 851 852 852 853 853 853 854 854 854 853 853 853 854 854 855
790 793 796 795 790 785 781 781 782 782 783 783 780 779 780 779 777 772 770 774 778 781 781 781 780 778 778 779 781 786 791 794 796 797 798 799 801 803 804 805 807 808 810 812 813 815 816 818 819 821 822 823 825 827 830 831 832 833 835 836 837 838 838 839 840 840 841 841 842 842 843 844 844 845 845 846 847 848 848 848 849 850 851 852 853 853 854 854 854 855 854 854 854 854 854 855 856
790 791 795 791 783 781 780 781 783 783 786 785 781 780 779 778 777 773 775 781 779 782 786 784 785 785 782 782 785 788 791 794 796 797 798 800 801 803 804 805 806 807 809 811 813 815 816 818 819 820 822 823 824 826 829 831 832 833 834 835 836 837 838 839 840 840 840 841 842 842 844 844 845 846 846 846 847 848 848 848 849 851 852 853 853 854 854 854 854 855 855 855 854 854 855 857 857
787 789 794 786 779 781 781 782 783 784 785 785 783 780 779 778 776 774 777 781 779 781 785 785 789 789 786 785 786 789 792 795 796 797 799 800 801 803 804 805 806 807 809 811 813 815 816 818 820 821 822 824 825 826 828 830 831 832 833 834 835 836 837 839 839 840 840 842 843 844 845 845 846 846 846 846 847 848 848 849 850 851 853 854 854 854 854 854 854 856 856 856 855 855 857 858 858
786 788 789 781 781 785 782 783 784 784 785 785 784 781 781 778 776 776 775 780 782 780 778 779 784 785 785 785 786 789 793 795 796 798 799 799 801 803 804 805 806 807 808 810 812 814 816 818 820 821 823 824 825 826 828 829 830 831 833 834 835 836 837 838 839 840 841 842 843 844 845 845 846 846 847 847 847 848 848 849 850 852 854 855 855 856 855 855 855 856 857 856 857 857 857 858 858
787 787 783 780 784 786 783 783 785 785 785 785 785 783 782 777 777 777 774 778 780 776 773 773 777 780 783 785 786 789 792 795 796 798 799 799 800 802 804 806 806 807 809 811 813 815 817 819 820 822 823 824 825 826 827 829 830 831 832 834 835 836 837 838 839 840 841 842 843 844 844 845 846 846 847 847 848 848 848 849 850 852 853 855 856 856 856 856 856 857 857 857 858 858 858 858 859
787 785 781 782 783 785 784 783 785 786 786 787 785 783 781 779 779 778 776 778 777 773 771 771 775 778 781 784 787 789 791 794 796 798 799 800 802 803 805 806 807 808 809 811 814 816 818 819 821 822 823 824 825 826 827 829 830 831 832 834 834 835 837 837 838 839 840 842 843 844 844 845 845 846 846 847 848 848 849 849 850 851 852 854 855 856 856 856 856 856 857 857 858 858 858 859 859
787 784 782 783 782 785 784 782 784 785 787 786 783 783 782 781 781 779 779 779 777 774 772 772 776 779 782 785 788 790 791 792 796 798 799 801 803 804 805 807 808 809 811 813 815 817 819 820 822 823 824 825 826 827 828 829 830 831 832 833 834 835 836 837 838 839 840 841 842 843 843 844 845 845 846 847 847 848 849 849 849 850 851 853 854 855 856 856 856 856 856 857 858 858 858 859 859
787 784 781 782 783 784 782 783 784 783 784 783 784 785 782 780 780 780 781 780 777 775 774 774 778 781 783 786 789 790 791 793 796 798 799 801 803 805 807 808 809 811 812 814 816 818 820 821 823 823 824 825 827 827 828 829 830 831 832 833 834 835 835 836 837 838 839 840 841 842 843 844 844 845 846 846 847 847 848 849 849 850 850 852 853 854 855 855 856 856 856 857 858 858 858 859 859
784 782 781 782 783 782 782 783 782 782 781 782 786 785 781 779 779 782 783 780 778 776 776 778 780 783 785 787 790 791 791 793 796 798 800 802 805 806 808 809 811 812 814 816 818 819 821 822 824 824 825 826 828 829 830 830 831 832 833 834 834 835 836 836 838 839 839 840 841 842 842 843 843 844 845 845 846 847 847 848 849 849 850 851 852 854 855 855 855 855 856 856 857 858 858 859 859
777 780 780 781 782 781 782 783 781 780 779 781 784 783 781 779 780 786 785 781 779 778 780 780 782 785 786 788 790 792 793 794 796 799 801 802 805 807 809 810 812 813 815 817 819 821 823 824 825 826 827 828 829 830 832 832 833 834 835 835 836 837 837 837 838 839 840 840 841 841 842 842 842 843 843 845 845 846 847 848 848 849 849 850 851 852 853 854 855 855 856 856 857 857 858 858 859
777 779 781 782 781 781 781 781 781 780 779 779 780 781 781 779 783 789 786 782 780 781 783 782 783 785 786 789 791 792 793 795 797 799 802 804 806 808 810 811 813 815 816 819 821 823 824 825 826 828 828 829 830 832 833 834 835 835 836 837 837 838 838 838 839 840 840 841 841 840 841 841 840 841 842 844 845 846 846 847 848 848 848 849 850 852 852 853 854 855 855 856 856 856 857 858 859
779 779 782 783 782 782 780 779 779 780 780 776 777 784 786 785 789 790 787 784 782 783 784 784 785 786 787 790 791 793 794 796 798 800 802 805 807 809 810 812 814 816 817 820 823 825 826 827 828 829 830 831 832 833 834 835 836 836 837 837 838 838 839 839 840 841 841 841 841 840 840 840 839 839 840 842 844 845 846 846 847 847 847 848 850 851 851 852 853 854 854 855 855 856 856 857 858
781 780 780 780 784 783 777 777 778 780 779 774 779 789 791 791 792 790 787 785 785 787 786 785 786 787 789 791 792 794 795 798 800 802 804 805 808 809 810 813 816 818 820 822 824 824 824 825 827 829 830 831 832 833 834 835 836 836 837 837 838 839 839 840 840 840 841 841 841 841 840 839 839 839 840 842 844 845 845 846 846 846 847 847 849 850 850 851 852 853 853 854 855 855 856 857 857
780 782 781 778 783 782 774 775 778 780 777 773 780 788 790 793 793 790 788 787 787 789 788 787 789 790 791 792 794 795 796 799 802 804 806 807 808 810 813 816 818 820 819 819 820 821 821 822 824 826 828 830 831 832 833 834 835 835 836 837 837 838 838 839 839 840 840 841 841 840 839 838 839 840 841 841 843 844 845 845 845 846 846 847 848 848 849 851 851 852 852 853 854 854 855 856 856
778 786 788 780 778 778 776 775 775 778 776 773 780 785 789 794 794 791 789 788 788 789 789 789 791 792 793 794 796 797 797 799 803 806 808 809 810 813 816 817 817 817 817 818 819 821 821 821 822 823 825 827 828 829 831 832 833 833 834 835 835 836 836 836 837 837 838 839 839 838 837 837 838 839 840 841 842 843 844 844 845 845 846 846 847 847 848 850 850 851 852 852 852 853 854 855 856
779 782 785 781 776 776 779 777 772 773 774 775 778 781 789 794 794 792 790 789 789 788 789 791 793 793 794 795 797 798 798 800 804 807 809 810 813 816 817 816 817 817 818 818 818 819 820 820 821 822 823 823 824 825 827 828 829 830 831 832 833 833 832 832 833 833 833 834 834 834 834 835 837 838 840 840 840 841 842 843 844 845 845 845 846 847 847 848 849 850 850 851 851 852 853 854 855
783 780 778 778 774 774 780 780 773 771 774 777 778 783 792 795 793 794 792 790 790 789 790 791 793 795 795 795 797 798 800 803 806 808 811 812 814 817 817 817 818 817 818 819 818 819 819 819 820 820 821 823 823 824 825 827 827 828 830 831 832 831 831 830 830 830 830 830 830 830 831 832 834 836 838 840 839 839 840 842 843 843 844 845 845 846 846 847 848 849 849 850 851 851 852 853 853
782 782 780 780 775 773 776 778 775 772 774 777 782 789 795 796 795 796 795 793 793 794 793 792 793 795 797 796 797 799 802 807 809 811 813 814 815 816 817 817 818 818 819 820 820 820 820 820 820 821 822 824 825 826 827 827 828 829 831 831 832 831 830 829 829 828 828 829 829 830 830 831 832 834 836 838 838 838 840 841 843 843 843 843 844 845 846 846 847 848 849 849 850 850 851 852 853
774 777 777 780 779 774 771 774 773 770 774 780 785 792 796 798 799 799 799 797 797 798 796 795 794 795 799 801 801 802 806 811 811 812 814 814 815 816 816 817 818 819 819 820 820 821 821 820 821 823 824 824 824 825 825 825 827 828 829 830 830 829 828 828 828 828 829 830 830 830 831 831 831 832 834 836 837 837 838 839 841 843 842 842 843 843 844 845 846 847 848 849 849 849 850 851 852
769 772 773 773 775 775 773 776 775 769 779 791 790 794 799 802 803 803 803 801 800 801 800 799 797 801 806 808 808 809 811 814 813 814 815 815 816 816 817 818 819 819 819 820 820 820 820 820 821 823 824 824 824 824 824 823 824 825 827 827 827 826 826 826 826 827 828 829 829 830 830 830 830 831 832 833 835 836 836 837 839 841 842 842 842 842 843 843 844 845 847 848 848 848 849 850 850
770 771 772 772 771 772 773 777 779 773 784 797 793 796 804 805 806 806 804 806 807 806 805 805 804 808 813 813 814 814 814 815 814 815 816 816 817 817 818 819 819 820 820 820 820 820 820 820 821 822 822 823 823 824 824 823 823 824 825 825 825 825 825 825 826 826 827 827 827 828 828 828 828 828 829 829 831 833 834 835 837 839 841 841 842 842 842 843 843 843 845 846 847 847 848 848 849
772 769 772 775 768 772 779 779 779 776 784 797 794 799 809 808 808 809 807 809 812 811 811 813 815 818 819 818 819 819 818 818 817 817 817 817 818 818 819 820 820 821 821 821 821 821 821 821 821 822 822 822 822 822 822 822 822 822 823 823 823 824 824 825 825 825 825 825 825 825 826 827 827 827 827 827 828 830 832 833 834 836 837 838 840 841 841 842 841 842 843 844 844 846 846 847 847
772 769 773 774 766 774 785 783 782 779 782 791 793 800 809 809 810 812 811 813 814 815 818 821 823 824 823 822 822 822 823 823 822 821 820 820 820 820 821 821 821 821 822 822 822 822 822 822 822 821 822 821 821 821 821 822 822 822 822 822 823 823 823 823 823 823 823 823 823 822 823 824 825 825 825 826 826 827 829 830 832 833 833 835 837 839 839 840 840 840 841 842 842 843 844 844 845
772 769 769 770 767 770 776 780 783 783 785 787 789 802 811 808 811 815 813 814 816 818 822 826 826 825 825 825 825 825 826 826 826 826 824 824 823 823 823 823 823 823 823 823 823 823 822 822 821 821 821 821 821 821 821 821 821 821 822 822 823 822 823 822 821 822 821 821 821 821 821 821 822 822 823 824 825 825 825 827 828 829 829 831 832 834 836 838 839 839 839 839 840 841 841 842 843
776 773 767 764 768 769 773 779 782 791 798 788 784 804 818 811 810 816 815 816 821 823 827 830 830 828 827 828 828 828 829 829 829 828 828 827 826 826 826 825 825 825 825 825 824 824 823 822 822 822 821 821 821 821 821 821 821 821 821 821 822 822 823 823 821 821 821 821 821 820 820 820 820 820 821 822 824 823 823 824 825 825 825 826 828 830 832 835 837 838 837 837 839 840 840 840 840
778 774 767 765 767 769 775 777 780 792 796 785 779 796 817 819 815 817 816 820 827 829 832 834 833 833 832 832 832 831 831 831 830 830 829 829 828 827 827 827 827 827 827 826 826 825 824 824 823 822 822 822 821 821 820 820 820 820 821 821 821 821 821 821 820 820 820 820 820 819 818 819 819 820 820 821 822 822 822 822 822 822 823 824 825 826 828 830 833 835 836 835 836 838 839 838 838
773 767 767 772 770 772 775 775 777 780 781 785 783 784 804 821 823 820 815 819 828 831 834 836 835 837 837 836 836 834 834 834 833 833 831 831 830 829 829 829 829 829 828 828 827 826 825 825 824 823 823 822 821 821 820 820 820 820 820 820 820 819 819 818 819 819 819 819 818 818 817 818 818 819 819 819 820 821 822 821 820 820 820 821 822 824 824 826 829 832 833 834 834 835 836 836 836
766 762 767 771 772 773 772 773 775 773 782 795 789 782 795 814 823 820 814 818 829 834 836 838 839 840 840 838 838 837 836 836 835 835 833 832 832 831 831 830 830 830 829 829 828 827 827 825 825 824 823 823 822 821 820 819 819 819 819 819 818 818 817 817 817 817 818 817 817 817 816 817 817 817 817 816 816 818 820 820 819 818 817 818 819 821 822 823 825 828 830 832 831 831 833 834 833
763 765 769 770 773 774 772 775 772 775 792 796 785 782 792 810 819 817 814 816 825 835 838 840 841 841 841 840 838 837 837 836 836 835 834 833 832 831 831 831 830 830 829 829 828 827 827 826 825 824 823 823 822 821 820 819 819 818 818 818 818 818 817 816 817 816 816 816 816 815 815 815 816 815 815 814 814 816 818 818 817 817 815 816 816 818 820 820 822 824 826 828 828 828 831 831 830
764 769 772 774 778 776 777 777 771 784 801 788 776 778 785 807 816 808 811 813 818 832 838 840 842 841 842 841 839 839 837 837 836 835 834 834 833 832 831 831 831 831 830 829 829 827 827 826 825 825 824 823 822 821 820 819 819 818 817 817 817 816 816 815 815 815 814 814 814 813 813 813 813 813 813 813 812 813 816 816 816 815 813 813 814 816 818 818 819 820 823 825 826 827 829 828 827
768 770 773 781 785 784 787 785 782 798 804 781 772 776 780 801 810 805 813 817 820 831 836 840 843 841 842 842 841 840 839 838 837 836 835 834 834 833 832 832 831 831 831 829 829 828 827 827 826 825 824 823 822 821 820 819 818 818 817 816 816 815 815 814 813 813 812 812 811 811 811 810 810 810 810 810 810 810 811 813 814 813 812 811 812 814 816 817 817 817 819 823 825 825 825 826 826
769 769 775 787 793 797 800 796 794 799 794 780 775 778 787 801 805 806 817 822 826 831 833 838 842 841 843 843 842 842 840 840 839 837 837 835 835 834 833 833 832 831 831 830 830 829 828 827 826 825 824 823 822 821 819 819 818 817 816 816 815 815 814 813 812 811 811 810 809 809 808 808 807 808 808 807 807 806 806 809 810 811 810 810 810 812 813 815 815 815 816 820 822 821 822 825 825
770 769 774 783 789 803 809 798 795 795 790 786 779 781 800 813 811 812 821 826 828 831 834 839 841 842 844 844 844 844 842 842 841 840 839 838 837 836 835 834 834 833 833 832 831 830 829 828 827 825 824 823 822 820 819 818 817 817 816 815 814 813 812 811 811 810 809 808 808 807 806 806 805 805 806 805 804 803 803 804 806 807 808 808 809 810 812 813 814 814 814 817 819 819 820 823 825
768 761 763 772 774 787 799 791 789 790 790 791 789 793 807 817 819 820 822 825 827 831 836 839 842 843 845 846 846 846 846 844 843 843 842 841 840 839 838 836 836 835 834 834 833 832 830 829 828 826 824 822 821 820 819 818 817 816 815 814 813 812 811 810 809 808 807 807 806 805 805 804 803 803 803 802 801 801 800 801 803 804 804 805 806 808 809 811 813 814 813 814 816 816 818 821 823
765 755 758 768 759 762 783 787 781 781 788 799 805 809 814 819 825 822 819 824 827 832 837 838 843 845 845 848 848 848 848 846 846 845 844 844 843 841 840 838 838 837 836 835 834 833 831 829 828 826 824 823 821 820 819 817 816 815 814 813 811 810 809 808 807 806 806 805 804 803 803 802 802 801 800 800 799 799 798 798 800 801 801 802 803 805 806 808 810 812 812 811 812 814 815 818 821
763 761 763 758 744 751 778 791 785 781 792 807 811 817 825 827 830 827 822 827 829 832 838 840 843 846 847 849 850 849 849 848 848 847 846 845 843 842 841 839 839 838 837 837 835 834 832 830 829 826 824 823 822 820 819 817 816 814 813 811 810 809 807 806 805 804 804 803 803 802 801 800 800 799 799 798 798 797 797 797 797 798 798 798 800 801 803 805 807 808 809 808 809 811 812 814 817
760 766 758 751 751 756 766 783 794 790 795 809 809 814 823 822 827 834 829 830 834 835 839 841 843 846 848 850 851 851 850 849 849 847 846 845 843 842 841 839 840 840 839 838 837 835 833 831 830 828 826 824 823 821 819 818 816 814 812 811 809 807 806 805 804 803 802 802 801 800 799 799 798 798 797 796 796 796 795 794 795 796 796 795 797 798 800 802 804 805 806 806 806 808 810 811 814
752 753 746 752 769 771 765 776 793 791 796 809 807 807 811 807 817 834 833 831 836 837 838 841 844 846 849 850 852 852 851 850 849 848 847 845 844 843 842 841 841 841 841 839 838 837 834 833 831 829 828 826 824 822 820 818 816 814 813 811 809 807 805 804 803 802 801 800 799 799 798 797 796 796 795 795 794 794 793 792 792 793 793 793 794 795 797 799 801 802 803 804 805 807 808 809 811
751 749 746 751 760 763 761 765 773 778 790 805 809 807 804 798 806 823 830 831 834 837 840 843 845 849 850 851 852 852 852 851 849 849 847 846 845 845 844 843 843 842 842 840 839 837 835 833 832 830 828 826 824 822 820 818 816 815 813 811 809 807 805 804 802 801 800 799 798 797 796 796 795 794 793 793 792 792 791 790 790 789 790 790 791 792 794 796 798 799 800 802 804 806 806 808 809
756 758 756 755 753 751 754 758 757 763 776 794 808 810 805 803 806 813 823 831 833 837 841 843 846 850 852 853 854 853 853 853 851 849 848 847 847 846 845 845 844 843 842 841 839 838 836 834 832 830 827 825 823 822 820 818 817 815 813 811 809 807 805 804 802 800 799 798 797 796 795 794 793 792 791 791 790 789 789 788 788 787 787 788 789 789 791 794 795 797 798 799 802 803 804 805 806
750 754 752 753 754 753 764 773 764 756 763 776 790 800 812 818 813 812 822 830 834 838 840 843 847 851 853 855 855 855 854 853 852 850 850 849 848 847 846 845 844 844 842 841 840 838 836 834 832 830 828 825 824 822 821 819 818 816 814 811 809 807 806 804 802 800 798 797 796 795 794 793 791 790 789 789 788 787 787 786 786 786 786 786 787 787 789 791 793 794 796 797 800 800 801 803 804